Terminal Aerodrome Forecast
Issued by NWS Duluth, MN

Home | Current Version | Previous Version | Text Only | Print | Product List | Glossary On
Versions: 1 2 3 4 5 6 7 8 9 10 11 12 13 14 15 16 17 18
743
FTUS43 KDLH 041027 AAB
TAFDLH
TAF AMD
KDLH 041027Z 0410/0506 35006KT P6SM SKC
     FM041400 35008G15KT P6SM SKC
     FM041700 35011G20KT P6SM SKC
     FM050100 VRB02KT P6SM SKC=

USA.gov is the U.S. government's official web portal to all federal, state and local government web resources and services.